Weather in Aymaki

Russia / Republic of Dagestan     42°32′18″N   47°08′01″E
temp.,
°C
wind,
m/s
gust,
m/s
humid.,
%
clouds,
%
prec.,
mm/h
press.,
hPa
HPBL,
m
17 april, sat
sat1700:00+7sw22753 0.0 102020
03:00+6sw22645 0.0 102019
06:00+7sw22638 0.0 102027
09:00+14s123898 0.0 1017612
12:00+18n2328100 0.0 10161715
15:00+15nne6549100 0.0 1017906
18:00+12nne2368100 0.0 1019562
21:00+9ene117898 0.0 102017
18 april, sun
sun1800:00+8e1184100 0.0 101912
03:00+7nnw1188100 0.0 101910
06:00+8s1185100 0.0 101927
09:00+12ene2267100 0.0 1017647
12:00+14ne326243 0.0 1015873
15:00+13nne446675 0.5 1015864
18:00+10n2181100 2.3 1018522
21:00+9n228766 4.1 1018208
19 april, mon
mon1900:00+9wsw338799 3.4 1019188
03:00+8wsw228890 3.7 101817
06:00+10ssw1184100 0.0 101721
09:00+14ne115876 0.0 1016518
12:00+16ne5454100 0.2 10151292
15:00+15e335698 0.3 10151049
18:00+13e1163100 0.0 101527
21:00+11sse227366 0.0 101513
20 april, tue
tue2000:00+10ssw117799 0.0 101511
03:00+9ssw227559 0.0 101414
06:00+10ssw2264100 0.0 101228
09:00+17s1243100 0.0 1010307
12:00+23sw123053 0.0 1007785
15:00+25se1325100 0.0 10052549
18:00+20sse2242100 0.0 100519
21:00+18ssw3344100 0.0 100727
21 april, wed
wed2100:00+16w4556100 0.1 1010111
03:00+12w1181100 0.8 101211
06:00+11ne118610 0.0 101464
09:00+14ne327848 0.0 1014596
12:00+13ne3484100 0.3 1016706
15:00+10ne3393100 3.5 1016440
18:00+8ene1296100 10.4 1018212
21:00+8ne2296100 12.4 1019154